Bookmark and Share
Track history (hours):
 

Nordic Philip

Last reported at 2014-Apr-19 16:33 UTC. Time now 2014-Apr-19 19:50 UTC.
Position N 59°58' E 026°29'.

Length 152 m; draft 7.5 m.

Type: Ship (hazmat cat A). MMSI: 212018000.

NotesDate/timePositionNaut miles runAvg speedWind from/ knotsBaromVisibWave heightAir tempDewpointWater temp
2014-Apr-19 16:33N 59°58' E 026°29'4615.1
2014-Apr-19 13:32N 59°47' E 025°01'1515.0
2014-Apr-19 12:34N 59°44' E 024°33'3115.0
2014-Apr-19 10:32N 59°35' E 023°35'31415.5
2014-Apr-18 14:14N 55°58' E 016°29'2816.5
2014-Apr-18 12:32N 55°44' E 015°45'1616.5
2014-Apr-18 11:33N 55°37' E 015°20'1616.2
2014-Apr-18 10:33N 55°29' E 014°55'1615.9
2014-Apr-18 09:34N 55°20' E 014°32'1615.8
2014-Apr-18 08:33N 55°07' E 014°16'1515.3
2014-Apr-18 07:33N 54°59' E 013°53'1515.4
2014-Apr-18 06:34N 54°54' E 013°28'1515.0
2014-Apr-18 05:34N 54°48' E 013°04'1515.3
2014-Apr-18 04:34N 54°42' E 012°39'1515.0
2014-Apr-18 03:33N 54°33' E 012°19'1313.3
2014-Apr-18 02:33N 54°24' E 012°02'1514.6
2014-Apr-18 01:34N 54°27' E 011°37'1514.8
2014-Apr-18 00:33N 54°33' E 011°15'59 8.4
2014-Apr-17 17:28N 54°16' E 009°37'5 5.0
2014-Apr-17 16:33N 54°12' E 009°33'7 7.1
2014-Apr-17 15:33N 54°09' E 009°22'7 7.1
2014-Apr-17 14:34N 54°02' E 009°18'6 6.3
2014-Apr-17 13:34N 53°57' E 009°14'4 4.1
2014-Apr-17 12:33N 53°54' E 009°09'1 1.4
2014-Apr-17 11:34N 53°53' E 009°07'1312.7
2014-Apr-17 10:34N 53°51' E 008°45'1716.9
2014-Apr-17 09:33N 53°59' E 008°20'1615.7
2014-Apr-17 08:33N 53°57' E 007°54'1615.9
2014-Apr-17 07:33N 53°54' E 007°27'1515.5
2014-Apr-17 06:33N 53°50' E 007°02'1514.9
2014-Apr-17 05:33N 53°47' E 006°37'1514.7
2014-Apr-17 04:33N 53°43' E 006°13'1414.2
2014-Apr-17 03:34N 53°39' E 005°50'1413.8
2014-Apr-17 02:33N 53°34' E 005°28'1313.4
2014-Apr-17 01:33N 53°30' E 005°07'1413.5
2014-Apr-17 00:33N 53°24' E 004°46'1313.5
2014-Apr-16 23:33N 53°13' E 004°34'1413.7
2014-Apr-16 22:33N 53°01' E 004°23'1313.5
2014-Apr-16 21:33N 52°50' E 004°12'1313.3
2014-Apr-16 20:33N 52°39' E 003°58'1413.7
2014-Apr-16 19:33N 52°30' E 003°42'1413.6
2014-Apr-16 18:34N 52°18' E 003°31'1414.3
2014-Apr-16 17:34N 52°04' E 003°25'1514.7
2014-Apr-16 16:33N 51°50' E 003°19'1212.3
2014-Apr-16 15:33N 51°37' E 003°22'1414.3
2014-Apr-16 14:34N 51°26' E 003°35'1111.3
2014-Apr-16 13:33N 51°21' E 003°52'9 9.0
2014-Apr-16 12:34N 51°22' E 004°06'7 6.8
2014-Apr-16 11:33N 51°21' E 004°16'0 0.0
2014-Apr-16 10:33N 51°21' E 004°16'0 0.0
2014-Apr-16 09:33N 51°21' E 004°16'0 0.0
2014-Apr-16 08:34N 51°21' E 004°16'0 0.0
2014-Apr-16 07:34N 51°21' E 004°16'0 0.0
2014-Apr-16 06:33N 51°21' E 004°16'0 0.0
2014-Apr-16 05:33N 51°21' E 004°16'0 0.0
2014-Apr-16 04:33N 51°21' E 004°16'0 0.0
2014-Apr-16 03:33N 51°21' E 004°16'0 0.0
2014-Apr-16 02:33N 51°21' E 004°16'0 0.0
2014-Apr-16 01:33N 51°21' E 004°16'0 0.0
2014-Apr-16 00:33N 51°21' E 004°16'0 0.0
2014-Apr-15 23:33N 51°21' E 004°16'2 2.0
2014-Apr-15 22:33N 51°22' E 004°14'1010.3
2014-Apr-15 21:33N 51°26' E 003°58'1010.1
2014-Apr-15 20:33N 51°24' E 003°43'10 9.6
2014-Apr-15 19:33N 51°29' E 003°30'1413.8
2014-Apr-15 18:33N 51°41' E 003°17'1110.7
2014-Apr-15 17:33N 51°52' E 003°17'1614.5
2014-Apr-15 16:26N 52°03' E 003°35'1314.3
2014-Apr-15 15:33N 52°02' E 003°56'8 2.5
2014-Apr-15 12:29N 51°57' E 004°04'0 0.0
2014-Apr-15 07:32N 51°57' E 004°04'0 0.0
2014-Apr-15 05:29N 51°57' E 004°04'0 0.0
2014-Apr-14 23:32N 51°57' E 004°04'1 0.3
2014-Apr-14 21:34N 51°58' E 004°05'6 6.2
2014-Apr-14 20:34N 52°00' E 003°56'2613.0
2014-Apr-14 18:34N 52°26' E 003°50'1817.6
2014-Apr-14 17:32N 52°44' E 003°54'5814.5
2014-Apr-14 13:34N 53°31' E 004°49'3014.8
2014-Apr-14 11:34N 53°42' E 005°36'1414.3
2014-Apr-14 10:33N 53°46' E 005°59'3913.0
2014-Apr-14 07:33N 53°57' E 007°03'1211.5
2014-Apr-14 06:33N 53°58' E 007°22'1211.7
2014-Apr-14 05:34N 54°01' E 007°41'60 8.5
2014-Apr-13 22:34N 54°09' E 009°22'1 0.7
2014-Apr-13 21:34N 54°09' E 009°23'8 7.6
2014-Apr-13 20:33N 54°13' E 009°35'57 7.1
2014-Apr-13 12:31N 54°36' E 011°04'1111.1
2014-Apr-13 11:34N 54°33' E 011°22'1413.7
2014-Apr-13 10:34N 54°27' E 011°43'1413.6
2014-Apr-13 09:34N 54°26' E 012°06'1313.3
2014-Apr-13 08:33N 54°37' E 012°19'2914.5
2014-Apr-13 06:32N 54°52' E 013°02'1414.3
2014-Apr-13 05:33N 54°57' E 013°26'1414.3
2014-Apr-13 04:33N 55°01' E 013°49'1413.6
2014-Apr-13 03:34N 55°09' E 014°09'1414.4
2014-Apr-13 02:33N 55°20' E 014°26'1414.2
2014-Apr-13 01:34N 55°29' E 014°45'1514.7
2014-Apr-13 00:34N 55°36' E 015°08'1514.5
2014-Apr-12 23:33N 55°44' E 015°30'1414.4
2014-Apr-12 22:34N 55°51' E 015°52'1414.3
2014-Apr-12 21:34N 55°58' E 016°14'31214.2
2014-Apr-11 23:31N 59°36' E 023°12'1414.2
2014-Apr-11 22:33N 59°40' E 023°38'1514.4
2014-Apr-11 21:33N 59°44' E 024°06'2014.5
2014-Apr-11 20:09N 59°49' E 024°45'5314.5
2014-Apr-11 16:30N 60°00' E 026°27'1314.2
2014-Apr-11 15:33N 59°60' E 026°54'9513.0
2014-Apr-11 08:17N 59°55' E 030°03'4 0.2
2014-Apr-10 10:32N 59°53' E 030°12'1 0.2
2014-Apr-10 05:09N 59°54' E 030°14'0 0.0
2014-Apr-10 04:33N 59°54' E 030°14'2 2.0
2014-Apr-10 03:33N 59°53' E 030°10'10514.3
2014-Apr-09 20:13N 59°60' E 026°41'5116.8
2014-Apr-09 17:12N 59°47' E 025°03'1116.5
2014-Apr-09 16:33N 59°45' E 024°42'  

Dump ship's entire track history

sailing weather and tide predictions

Nordic Philip — 5BZH2 — position and weather